Theta_e
342 344 344 343 342 340 339 339 338 337 335 332 334 334 334 334 334 332 331 333 333 332 333 335 337 338 337 339 339 341 341 338 337 334 330 328 335 335 331 323 336 338 328
344 345 342 341 341 340 342 341 340 338 336 335 334 335 333 333 332 332 334 333 332 334 335 335 335 336 336 337 340 341 342 341 338 337 335 339 329 332 324 325 340 337 337
346 345 342 342 343 343 341 342 344 342 339 339 336 335 333 332 332 333 333 332 335 335 335 335 336 336 336 336 339 341 342 342 342 338 340 341 342 327 325 327 333 338 334
349 348 346 344 344 343 344 344 343 342 342 340 338 332 331 331 331 333 332 331 335 335 335 335 336 336 336 337 338 339 340 340 340 342 344 340 341 324 332 336 336 334 329
352 350 346 346 346 346 345 344 342 339 337 336 333 331 332 332 332 333 331 334 335 334 335 335 335 336 335 336 337 339 340 339 341 344 346 341 341 324 333 331 337 327 338
351 353 344 345 345 345 345 344 337 334 334 332 332 332 332 333 334 334 333 334 334 334 335 334 334 334 334 334 334 337 339 341 345 346 346 340 342 325 336 326 335 329 338
350 352 345 343 342 342 342 334 332 332 332 332 332 332 333 333 335 334 333 332 334 335 337 335 337 335 334 334 339 338 340 342 348 349 344 348 341 326 327 330 322 326 336
351 350 345 342 342 343 338 333 333 333 332 332 331 331 331 334 334 332 331 333 336 338 337 336 340 340 340 338 339 340 341 343 348 349 348 347 339 328 327 331 333 324 338
352 350 350 348 344 340 342 334 334 332 332 331 331 331 334 333 332 332 334 338 339 340 340 341 342 340 340 342 342 342 342 343 349 349 347 346 340 328 332 327 335 328 335
350 352 352 351 349 345 337 334 334 334 332 332 333 335 333 332 334 339 340 342 343 342 342 341 341 342 340 340 340 340 341 345 349 350 349 346 341 336 333 327 326 327 327
351 351 353 354 349 349 349 344 338 337 335 334 335 334 335 346 347 347 346 344 343 343 342 341 341 340 342 344 343 342 344 346 347 348 349 344 343 341 334 328 324 327 331
350 353 349 349 349 350 349 346 347 347 346 347 348 346 347 347 346 344 345 343 342 342 343 342 342 343 346 347 348 347 347 347 347 347 348 343 344 343 341 333 328 324 330
350 349 349 348 350 350 349 349 348 348 348 347 337 339 348 348 349 350 349 350 350 348 348 349 349 348 348 348 348 348 348 347 346 346 347 341 343 343 342 341 337 328 324
350 350 350 350 349 349 349 348 348 348 348 347 346 335 343 347 349 350 349 350 346 350 346 349 349 349 350 350 350 349 349 348 347 346 347 342 341 341 344 342 340 337 328
349 350 350 351 351 351 349 349 348 349 347 347 347 345 347 349 350 350 350 346 348 348 350 349 349 349 350 349 349 349 349 349 349 347 346 344 341 341 340 340 341 341 340
348 349 350 351 349 348 349 348 348 348 347 347 347 347 344 347 350 345 346 349 348 349 350 348 345 347 348 351 349 349 348 347 347 345 346 347 344 340 338 339 340 340 340
349 349 349 351 351 349 349 348 347 348 348 348 349 350 345 344 344 344 347 346 348 350 344 346 346 349 347 346 347 346 346 344 341 342 340 341 345 345 341 336 339 340 341
349 350 350 350 351 350 348 346 349 350 351 350 351 350 349 346 344 344 343 345 347 348 350 348 347 344 341 339 338 338 338 338 335 336 335 337 335 338 344 341 338 339 340
350 351 351 350 350 351 344 350 351 352 349 352 352 349 350 349 346 347 345 349 346 348 347 348 343 343 338 335 333 332 334 336 336 336 339 340 339 337 338 341 338 339 338
352 351 352 350 352 351 352 349 350 349 349 351 352 350 350 347 349 350 349 348 343 349 348 345 341 338 334 336 335 333 336 337 338 339 340 339 341 341 342 342 342 341 340
353 353 353 353 351 352 353 353 352 352 351 353 353 352 351 350 345 350 349 348 344 346 346 342 339 333 332 337 335 334 334 337 337 338 339 337 338 339 341 342 343 342 343
354 354 354 353 350 348 354 354 353 353 352 351 353 353 350 351 350 348 348 350 345 343 341 343 338 331 334 337 335 334 334 337 337 338 337 334 334 335 336 337 341 340 342
353 355 355 349 348 347 350 354 354 354 353 353 351 350 350 349 349 346 346 345 341 340 339 338 336 335 333 335 330 335 335 334 334 337 338 333 331 330 331 333 331 329 333
352 355 355 349 347 347 347 353 355 352 350 347 348 347 346 348 349 346 335 338 340 340 337 334 334 328 328 333 335 337 337 334 336 335 334 332 330 329 326 327 326 320 319
351 352 355 351 347 347 349 350 354 352 350 350 349 350 340 346 344 344 341 336 332 336 334 324 325 326 333 334 335 335 336 335 335 333 331 331 330 329 328 327 326 325 323
348 349 352 353 346 346 346 344 346 352 352 349 351 351 345 343 343 338 341 338 337 333 330 331 324 322 323 329 334 334 333 332 332 333 332 333 332 330 328 327 327 326 325
Wind_Speed
24 23 23 29 32 32 30 28 27 26 26 26 24 21 19 17 12 11 11 10 11 10 9 9 10 9 11 10 9 9 9 8 9 8 8 7 6 5 5 5 11 5 8
22 23 29 31 30 29 28 26 24 23 23 23 21 18 15 13 11 10 9 10 10 9 10 10 10 10 11 10 10 8 8 6 7 7 9 12 5 5 6 9 12 7 11
20 24 25 27 26 24 23 22 20 21 20 20 19 17 14 12 10 9 8 9 10 9 8 10 9 9 9 9 9 8 6 6 5 6 12 8 2 6 6 9 10 11 10
19 18 21 23 22 21 21 20 21 20 19 18 17 16 13 10 8 7 7 7 7 7 8 8 9 9 9 8 9 8 7 6 3 6 9 6 4 6 6 8 9 9 10
14 14 17 17 18 20 20 19 18 18 19 18 17 13 10 8 7 6 5 5 6 6 7 7 8 8 8 8 8 7 7 6 5 3 7 5 7 5 6 7 8 9 13
14 13 17 17 18 18 18 17 19 19 18 17 14 11 10 9 6 4 4 4 5 5 7 8 9 8 7 7 8 7 6 5 7 3 5 6 5 5 6 6 8 8 11
16 15 16 17 17 18 19 21 20 17 16 14 12 11 9 6 4 4 3 3 3 5 6 7 8 8 7 7 6 6 6 7 5 6 3 5 2 4 7 7 7 8 8
16 16 16 17 17 18 19 20 16 13 13 13 10 8 7 5 4 2 1 2 3 5 6 6 7 7 7 7 7 7 8 7 5 5 3 2 1 4 4 6 7 8 8
16 18 16 15 16 17 17 16 13 12 12 10 8 8 7 5 3 0 1 2 4 5 5 6 5 7 8 7 7 8 7 7 5 4 5 2 3 4 4 4 6 6 8
16 15 16 16 15 15 15 15 12 11 10 9 9 8 6 4 1 3 4 3 4 5 5 5 5 5 6 6 6 6 7 10 3 3 4 1 2 3 4 2 4 6 6
16 16 14 14 15 14 12 12 12 11 11 10 9 7 5 2 3 3 4 3 2 4 5 4 4 5 4 8 8 8 9 4 2 1 2 3 3 1 3 3 3 6 6
17 15 17 16 15 15 12 11 10 9 8 7 7 8 5 6 5 3 4 2 4 5 4 7 6 7 8 3 6 10 5 3 3 3 4 4 1 1 2 3 3 5 6
18 17 17 17 16 15 13 11 9 9 9 8 9 8 6 5 4 3 4 4 3 8 3 5 5 2 1 2 5 5 4 4 3 4 7 6 4 3 2 4 3 5 6
19 18 17 17 17 16 13 12 11 11 10 9 8 9 7 5 5 4 4 4 4 3 5 5 4 4 4 7 6 6 5 3 4 4 7 8 6 4 4 5 7 5 7
19 18 18 18 17 16 17 13 13 12 11 10 9 9 8 7 7 6 6 5 6 5 6 6 5 7 7 8 8 8 6 8 6 4 6 11 7 6 6 6 7 9 8
19 19 18 18 18 17 16 16 14 12 12 12 11 11 11 8 9 10 8 7 8 7 8 7 7 9 8 8 8 5 7 6 7 7 7 10 12 10 10 8 8 9 11
20 19 19 19 19 18 18 16 15 13 12 12 11 12 13 13 13 11 8 10 8 10 9 8 8 8 9 9 9 9 7 8 8 9 10 9 12 14 13 11 11 9 10
20 21 20 18 19 19 18 17 15 13 12 12 15 13 15 13 13 13 11 10 9 11 9 8 7 7 9 9 10 9 9 10 10 11 9 9 9 10 12 14 13 13 11
20 20 20 20 19 19 19 16 15 15 15 12 15 14 12 12 11 11 12 10 12 10 8 6 6 9 11 10 9 9 9 7 6 4 4 4 4 6 7 11 13 13 12
19 19 19 19 19 18 16 17 15 15 14 13 13 13 14 13 10 11 9 9 11 8 5 6 10 11 9 7 6 7 6 4 2 0 1 1 1 0 2 6 7 8 13
21 20 21 21 21 19 17 15 15 14 14 12 12 13 13 13 14 13 10 10 9 5 6 8 9 10 6 7 6 5 4 1 1 2 1 1 2 2 2 1 1 5 9
24 24 23 25 24 23 18 16 14 12 13 13 11 13 12 11 11 10 11 9 8 6 7 6 7 6 6 5 4 4 2 3 3 2 1 1 1 2 3 3 1 1 3
27 26 26 27 27 27 23 18 16 15 14 12 12 11 11 10 10 9 8 7 9 5 7 8 6 6 4 5 4 1 3 2 3 3 3 3 3 2 2 4 2 4 3
30 27 27 29 30 29 29 24 21 16 13 11 9 9 8 9 8 8 9 9 9 6 9 6 6 3 3 4 4 2 1 3 4 2 2 3 3 3 3 3 4 4 4
30 29 27 30 31 30 29 29 24 21 16 13 11 11 8 10 10 10 11 12 12 7 8 8 8 4 3 1 2 3 3 3 4 3 4 1 5 3 1 1 2 2 5
31 31 29 30 32 32 31 29 31 26 20 15 15 11 10 10 11 14 14 14 13 9 8 7 7 5 3 4 3 3 3 2 4 6 7 7 7 7 6 6 6 6 5
Wind_Direction
112 123 126 131 133 136 135 133 130 127 128 128 128 129 127 125 116 106 97 93 85 77 71 62 60 49 47 44 40 45 58 63 56 56 51 51 62 73 47 93 98 127 125
122 124 127 128 131 134 132 133 133 134 133 129 134 129 129 125 118 103 98 90 79 71 63 56 52 45 44 40 48 45 59 65 73 55 50 34 45 60 49 102 119 157 125
121 128 129 132 133 133 132 133 135 138 138 138 133 134 131 127 114 101 86 76 71 68 61 54 45 38 42 38 43 49 53 56 77 63 69 71 56 57 73 102 132 122 122
126 130 138 136 137 134 133 133 135 134 137 136 136 132 133 135 115 90 83 74 69 66 55 44 37 34 35 36 38 44 42 30 34 79 66 82 80 64 101 105 123 122 122
134 136 142 143 142 140 139 135 131 136 136 139 141 140 138 128 115 100 89 79 67 58 44 25 25 28 25 22 32 38 38 28 54 92 102 77 94 63 113 106 107 113 110
136 132 138 138 137 140 136 135 140 139 141 145 147 140 131 125 115 109 95 80 61 46 23 13 16 18 16 22 18 28 31 37 34 61 105 70 101 87 120 110 148 138 141
138 136 137 136 138 141 145 147 141 139 141 142 140 138 137 129 120 114 98 58 53 26 9 12 15 19 18 22 28 35 39 54 43 50 80 99 82 76 118 115 128 136 132
144 139 145 143 142 142 149 147 143 142 144 141 139 147 150 143 131 116 45 44 27 7 7 14 6 20 28 35 45 50 55 68 42 45 94 124 84 69 117 127 127 141 136
147 149 146 148 151 152 155 156 156 156 156 156 160 160 159 155 159 317 341 15 353 354 2 15 26 36 50 59 63 67 54 60 75 92 68 52 46 62 129 126 149 154 154
155 149 154 156 155 152 156 163 170 171 171 173 169 166 165 176 175 42 28 338 351 20 18 23 16 24 49 42 32 47 51 36 46 72 88 87 41 66 139 141 173 175 174
162 158 161 159 162 161 162 168 165 166 173 178 176 178 189 162 249 281 287 341 4 1 5 0 356 7 20 12 17 26 47 34 23 333 57 329 36 114 126 140 175 185 185
171 166 169 171 173 167 168 182 174 181 185 184 198 214 202 229 237 249 269 307 353 5 20 10 19 34 34 360 343 8 358 336 2 321 284 327 317 349 208 155 185 192 203
174 172 179 179 182 179 185 185 194 199 201 211 205 202 220 228 254 250 284 324 310 320 7 345 337 360 304 341 323 344 328 345 315 314 283 304 310 292 285 229 215 206 206
180 179 182 188 189 190 200 201 203 206 207 205 218 216 225 235 250 238 244 252 321 284 317 314 302 295 324 310 316 311 316 319 309 294 286 300 282 277 273 249 232 218 214
186 187 190 192 196 197 202 205 205 208 218 219 221 226 220 227 239 242 252 279 286 297 298 315 309 303 296 300 298 302 303 305 298 290 282 288 276 273 277 263 248 236 240
193 195 195 198 202 202 205 209 211 214 218 224 227 226 223 229 242 255 268 284 277 273 275 295 306 307 313 307 304 296 300 299 292 285 272 287 288 273 268 276 261 245 233
200 199 200 200 203 206 208 212 214 218 222 225 227 233 230 240 246 257 267 270 278 288 292 286 311 312 323 317 309 308 309 302 297 290 284 271 279 291 276 271 268 264 256
200 203 202 204 207 210 211 212 213 217 218 225 230 242 253 257 260 263 272 267 273 272 262 294 316 310 310 307 300 296 285 286 289 293 294 278 259 251 283 289 267 267 266
203 204 204 205 206 209 210 213 217 222 225 225 242 246 254 255 265 269 266 267 268 266 274 286 301 309 310 309 302 296 292 296 299 284 295 306 278 260 246 272 272 259 258
204 203 204 204 205 204 206 215 224 234 235 237 252 245 248 255 255 264 267 262 279 270 278 279 307 308 314 318 315 298 292 289 303 305 299 60 283 154 238 254 251 273 260
205 206 207 205 205 202 209 212 219 232 245 246 245 259 260 263 258 251 259 267 266 276 254 298 314 317 325 312 335 315 293 280 347 158 153 32 337 349 313 281 178 211 260
209 210 211 213 214 214 214 217 220 232 240 245 258 257 264 257 249 243 237 255 249 262 290 296 316 311 317 320 340 313 253 215 242 254 259 36 6 334 336 341 342 264 203
212 213 214 220 221 221 216 225 230 232 236 251 261 270 271 254 252 251 248 228 257 266 293 306 314 321 311 317 330 323 289 351 316 270 292 315 35 16 22 8 340 302 267
214 215 217 224 226 226 226 220 223 226 235 243 249 255 245 244 233 234 240 254 248 259 267 290 308 287 343 316 327 331 339 267 313 223 243 302 10 27 61 59 33 7 357
213 215 217 223 227 226 227 225 227 234 235 236 234 240 242 230 221 220 233 248 260 272 270 266 291 268 288 242 272 287 297 302 305 284 288 296 319 307 316 309 287 318 326
212 213 215 221 225 226 226 228 229 228 224 222 227 231 231 229 232 233 233 241 250 253 265 281 272 266 228 230 237 247 242 254 290 295 295 298 297 289 288 277 298 294 301